{"data":{"norad_id":66850,"intl_designator":"2025-281C","name":"STARLINK-36105","alt_names":[],"object_type":"PAYLOAD","status":"ACTIVE","operator":null,"country":"US","launch_date":"2025-12-02","launch_site_code":"AFETR","launch_vehicle":null,"mission":null,"orbit_class":"UNKNOWN","rcs_meters":null,"size_class":null,"mass_kg":null,"dimensions":null,"purposes":["comms"],"wikipedia_slug":null,"has_3d_model":false,"image_url":null,"decayed_at":null,"tle_current":{"epoch":"2026-09-20T14:32:03.029568Z","epoch_age_seconds":75241,"freshness":"FRESH","line1":"1 66850U 25281C   26263.60559062  .00008886  00000+0  33196-3 0  9999","line2":"2 66850  43.0013 322.8464 0001204 279.8582  80.2134 15.27589258 45992","mean_motion":15.27589258,"eccentricity":0.0001204,"inclination_deg":43.0013,"raan_deg":322.8464,"arg_perigee_deg":279.8582,"mean_anomaly_deg":80.2134,"bstar":0.00033196,"rev_number":4599,"period_min":94.266177407226,"perigee_km":482.19529092883,"apogee_km":483.84745786539,"semimajor_km":6861.1583743971,"source":"CELESTRAK","updated_at":"2026-09-21T09:00:36.025841Z"}}}